Zurück zum Katalog

STARLINK-11235

AktivKommunikationVLEO
NORAD 60726·PAYLOAD·🇺🇸 United States

Gestartet Aug 28, 2024 von Cape Canaveral Space Force Station

Loading…

Nächste Überflüge (nächste 24 Stunden)

TLE

AktuellSource: CelesTrak SupGP

Epoche: Sep 15, 2026, 01:55 UTC

1 60726C 24152G   26258.08034722  .00047392  00000+0  38995-3 0  2583
2 60726  53.1574 262.6023 0001117  97.1949 180.7651 15.69712739    17

Verfolge STARLINK-11235 in Echtzeit mit AllMySat

Download on the App Store